OPS 4682 DEB, 38363

Orbit data source: Space-Track

OPS 4682 DEB, 38363 is space debris in LEO originally from a launch on Sat, 03 Apr 1965 UTC launched from the Air Force Western Test Range (AFWTR). Debris objects in space refer to the collection of defunct objects orbiting the Earth. Examples of debris include non-operational satellites, rocket bodies, and fragments generated from explosions, collisions, or faulty payload assembly.

Loading next visibility...
Identifier
38363, 1965-027BQ
Orbit
LEO
Country
Flag of USUS
Related business
Manufacturer
Unknown
Mission
Spacecraft
Bus & Motor
Unknown
Mass
Unknown
Launch date (UTC)
1965-04-03 (61 years ago)
Launch vehicle
Unknown
Launch site
Air Force Western Test Range (AFWTR)
Object type
Payload
Rocket body
Debris
Shape & HBR
Unknown shape, 0.1 m
Radar Cross Section
Medium (>0.1 m² and <1 m²)

Expand to show TLE details & history
Last TLE update: 1 week ago

TLE from 1 week ago
0 OPS 4682 DEB
1 38363U 65027BQ  26152.01132261 -.00000474  00000-0 -15688-2 0  9992
2 38363  90.2425   9.2434 0027766 247.7904 112.0273 13.01284383550054
Epoch: 2026-06-01T00:16Z
TLE epoch observation values (Epoch: 2026-06-01T00:16:18.273Z)
Latitude
0.00001°
Longitude
115.66249°
Altitude
1,267.947 km
Speed
7.218 km/s
True Right ascension
00h 36m 58s
True Declination
0° 00' 00"
Sunlit
Object was in daylight at epoch
Visualization orbit readout
Latitude
Unknown
Longitude
Unknown
Altitude
Unknown
Speed
Unknown
Apparent Right ascension
Unknown
Apparent Declination
Unknown
Sunlit
N/A
Visualization observer readout
Local Sidereal Time
13:03:46
Azimuth
Unknown
Elevation
Unknown
Doppler factor
Unknown
Orbital elements
Apogee altitude
1,275.375 km
Perigee altitude
1,232.992 km
Semi-major axis
7,632.321 km
Eccentricity
0.00278
Inclination
90.2425°
RAAN
9.2434°
Arg. of periapsis
247.7904°
True anomaly
112.32187°
Mean anomaly
112.0273°
Eccentric anomaly
112.17462°
Mean motion
3.25505 °/min
Orbital period
110.6 mins
BSTAR
-0.0015688
Loading maneuver chart data...
Computing Atmospheric mass density...
Loading historical data...
Loading historical data...
Loading historical data...
Loading historical data...
Loading historical data...
Loading historical data...
Loading historical data...

Documentation

Showing up to 5 results
|